Homiel, Belarus

9:41 AM +03 on February 25, 2018 (GMT +0300)
Gomel

Weather History for UMGG - March, 2014

Change the Weather History Date:

Wednesday, March 5, 2014

  Actual Average Record
Temperature  
Mean Temperature 36 °F -  
Max Temperature 39 °F 41 °F - ()
Min Temperature 32 °F 26 °F - ()
Degree Days  
Heating Degree Days 30    
Moisture  
Dew Point 32 °F    
Average Humidity 90    
Maximum Humidity 100    
Minimum Humidity 73    
Precipitation  
Precipitation 0.00 in 0.04 in - ()
Sea Level Pressure  
Sea Level Pressure 30.09 in    
Wind  
Wind Speed 8 mph ()    
Max Wind Speed 16 mph    
Max Gust Speed -    
Visibility 4.5 miles    
Events Fog , Rain    
T = Trace of Precipitation, MM = Missing Value Source: Averaged Metar Reports

Daily Weather History Graph

Daily Weather History Graph

Search for Another Location

Airport or City:

Trip Planner

Search our weather history database for the weather conditions in past years. The results will help you decide how hot, cold, wet, or windy it might be!

Date:

Astronomy

Mar. 05, 2014 Rise Set
Actual Time 7:33 AM +03 6:41 PM +03
Civil Twilight 6:59 AM +03 7:16 PM +03
Nautical Twilight 6:20 AM +03 7:55 PM +03
Astronomical Twilight 5:40 AM +03 8:35 PM +03
Moon 9:09 AM +03 (3/5) No Moon Set
Length of Visible Light 12h 16m
Length of Day
11h 07m
Waxing Crescent, 20% of the Moon is Illuminated
Mar 5
Waxing Crescent
Mar 8
First Quarter
Mar 16
Full
Mar 24
Last Quarter
Mar 30
New

Hourly Weather History & Observations

Time (+03) Temp. Windchill Dew Point Humidity Pressure Visibility Wind Dir Wind Speed Gust Speed Precip Events Conditions
12:00 AM 33 °F - 33 °F 98% 30.01 in 1 mi ENE 2.2 mph - - Rain Light Drizzle
12:00 AM 33.8 °F 26.5 °F 32.0 °F 93% 29.98 in - ENE 8.9 mph - N/A   Overcast
1:00 AM 33.8 °F 26.5 °F 32.0 °F 93% 30.01 in - ENE 8.9 mph - N/A   Overcast
2:00 AM 33.8 °F 26.5 °F 32.0 °F 93% 30.01 in 3.1 mi ENE 8.9 mph - N/A   Overcast
3:00 AM 33 °F - 33 °F 97% 30.04 in 3 mi East 2.2 mph - - Rain Light Drizzle
3:00 AM 33.8 °F 27.9 °F 32.0 °F 93% 30.01 in - ENE 6.7 mph - N/A   Overcast
4:00 AM 32.0 °F 25.7 °F 32.0 °F 100% 30.01 in - ENE 6.7 mph - N/A   Overcast
5:00 AM 32.0 °F 23.2 °F 32.0 °F 100% 30.01 in 2.8 mi ENE 11.2 mph - N/A   Overcast
6:00 AM 34 °F - 32 °F 90% 30.06 in 3 mi East 2.2 mph - -   Mist
6:00 AM 33.8 °F 25.4 °F 32.0 °F 93% 30.04 in 1.7 mi East 11.2 mph - N/A   Overcast
6:40 AM 33.8 °F 25.4 °F 32.0 °F 93% 30.04 in 0.7 mi East 11.2 mph - N/A   Light Drizzle
6:50 AM 33.8 °F 25.4 °F 32.0 °F 93% 30.04 in 0.4 mi East 11.2 mph - N/A Fog Light Drizzle
7:00 AM 33.8 °F 25.4 °F 33.8 °F 100% 30.04 in 0.4 mi East 11.2 mph - N/A Fog Light Drizzle
7:30 AM 33.8 °F 25.4 °F 33.8 °F 100% 30.06 in 0.6 mi East 11.2 mph - N/A Fog Light Drizzle
7:35 AM 33.8 °F 25.4 °F 33.8 °F 100% 30.06 in 0.7 mi East 11.2 mph - N/A   Light Drizzle
8:00 AM 32.0 °F 21.4 °F 32.0 °F 100% 30.06 in 3.1 mi ENE 15.7 mph - N/A   Overcast
8:30 AM 32.0 °F 22.2 °F 32.0 °F 100% 30.06 in 3.1 mi East 13.4 mph - N/A   Overcast
9:00 AM 33 °F - 32 °F 94% 30.10 in 4 mi East 2.2 mph - -   Mist
9:00 AM 32.0 °F 22.2 °F 32.0 °F 100% 30.09 in 3.7 mi East 13.4 mph - N/A   Overcast
9:30 AM 32.0 °F 23.2 °F 32.0 °F 100% 30.09 in 3.7 mi East 11.2 mph - N/A   Overcast
10:00 AM 32.0 °F 22.2 °F 32.0 °F 100% 30.09 in 4.3 mi East 13.4 mph - N/A   Overcast
10:30 AM 32.0 °F 22.2 °F 32.0 °F 100% 30.09 in 4.3 mi East 13.4 mph - N/A   Overcast
11:00 AM 33.8 °F 24.5 °F 30.2 °F 87% 30.09 in 5.6 mi ESE 13.4 mph - N/A   Overcast
11:30 AM 33.8 °F 24.5 °F 30.2 °F 87% 30.09 in 5.0 mi East 13.4 mph - N/A   Overcast
12:00 PM 34 °F - 32 °F 89% 30.13 in 5 mi East 4.5 mph - -   Mist
12:00 PM 33.8 °F 24.5 °F 32.0 °F 93% 30.09 in 5.0 mi East 13.4 mph - N/A   Overcast
12:30 PM 33.8 °F 24.5 °F 32.0 °F 93% 30.12 in 6.2 mi East 13.4 mph - N/A   Overcast
1:00 PM 35.6 °F 26.8 °F 32.0 °F 87% 30.12 in 6.2 mi East 13.4 mph - N/A   Overcast
1:30 PM 35.6 °F 26.8 °F 32.0 °F 87% 30.12 in 6.2 mi East 13.4 mph - N/A   Overcast
2:00 PM 37.4 °F 29.1 °F 33.8 °F 87% 30.12 in 6.2 mi East 13.4 mph - N/A   Overcast
2:30 PM 37.4 °F 29.9 °F 33.8 °F 87% 30.12 in 6.2 mi East 11.2 mph - N/A   Overcast
3:00 PM 38 °F - 33 °F 75% 30.14 in 6 mi East 2.2 mph - -   Overcast
3:00 PM 39.2 °F 32.2 °F 32.0 °F 75% 30.12 in 6.2 mi East 11.2 mph - N/A   Overcast
3:30 PM 39.2 °F 31.3 °F 32.0 °F 75% 30.12 in 6.2 mi ENE 13.4 mph - N/A   Overcast
4:00 PM 39.2 °F 31.3 °F 32.0 °F 75% 30.12 in 6.2 mi East 13.4 mph - N/A   Overcast
4:30 PM 39.2 °F 31.3 °F 32.0 °F 75% 30.12 in 6.2 mi East 13.4 mph - N/A   Overcast
5:00 PM 39.2 °F 31.3 °F 32.0 °F 75% 30.12 in 6.2 mi East 13.4 mph - N/A   Overcast
5:30 PM 39.2 °F 31.3 °F 32.0 °F 75% 30.12 in 6.2 mi East 13.4 mph - N/A   Overcast
6:00 PM 39 °F - 33 °F 73% 30.15 in 6 mi East 4.5 mph - -   Mostly Cloudy
6:00 PM 39.2 °F 32.2 °F 33.8 °F 81% 30.15 in 6.2 mi East 11.2 mph - N/A   Overcast
6:30 PM 39.2 °F 33.1 °F 33.8 °F 81% 30.15 in 6.2 mi East 8.9 mph - N/A   Overcast
7:00 PM 37.4 °F 29.9 °F 33.8 °F 87% 30.15 in 6.2 mi East 11.2 mph - N/A   Overcast
7:30 PM 37.4 °F 29.9 °F 33.8 °F 87% 30.18 in 6.2 mi East 11.2 mph - N/A   Overcast
8:00 PM 37.4 °F 30.9 °F 33.8 °F 87% 30.18 in 6.2 mi East 8.9 mph - N/A   Overcast
9:00 PM 37 °F - 34 °F 83% 30.20 in 6 mi East 2.2 mph - -   Mostly Cloudy
9:00 PM 37.4 °F 29.9 °F 33.8 °F 87% 30.18 in 6.2 mi East 11.2 mph - N/A   Overcast
10:00 PM 35.6 °F 27.7 °F 33.8 °F 93% 30.18 in 6.2 mi East 11.2 mph - N/A   Overcast
11:00 PM 35.6 °F 26.8 °F 32.0 °F 87% 30.18 in 6.2 mi East 13.4 mph - N/A   Overcast